CW8198 Weather Reports


time (UTC)temp
F
wind
direction
speed
knots
gust
knots
rain 1hr
in
rain 24hr
in
rain mn
in
humidity
%
barometer
mb
20220930163139 68 120 5.2 12.2 0.00 0.00 0.00 49 1019.1
20220930162140 67 165 6.1 10.4 0.00 0.00 0.00 50 1019.2
20220930161140 66 162 5.2 13.0 0.00 0.00 0.00 50 1019.3
20220930160140 66 107 7.8 13.0 0.00 0.00 0.00 50 1019.4
20220930155639 65 124 7.0 11.3 0.00 0.00 0.00 51 1019.5
20220930155139 65 166 5.2 10.4 0.00 0.00 0.00 51 1019.5
20220930154639 65 116 4.3 10.4 0.00 0.00 0.00 54 1019.6
20220930153138 63 109 5.2 9.6 0.00 0.00 0.00 55 1019.6
20220930151639 62 135 4.3 11.3 0.00 0.00 0.00 56 1019.6
20220930150638 62 89 7.8 9.6 0.00 0.00 0.00 57 1019.6
20220930150138 61 180 5.2 9.6 0.00 0.00 0.00 60 1019.6
20220930145637 60 157 4.3 12.2 0.00 0.00 0.00 58 1019.5
20220930145138 60 162 7.0 12.2 0.00 0.00 0.00 59 1019.5
20220930144638 60 157 6.1 10.4 0.00 0.00 0.00 60 1019.5
20220930142636 58 135 6.1 11.3 0.00 0.00 0.00 61 1019.5
20220930141638 58 100 5.2 11.3 0.00 0.00 0.00 61 1019.6
20220930141137 58 120 7.0 12.2 0.00 0.00 0.00 61 1019.6
20220930140637 58 99 7.0 13.0 0.00 0.00 0.00 62 1019.5
20220930140138 57 130 5.2 13.0 0.00 0.00 0.00 62 1019.8
20220930135637 57 107 6.1 10.4 0.00 0.00 0.00 62 1019.7
20220930135136 57 179 6.1 12.2 0.00 0.00 0.00 63 1019.7
20220930134637 56 90 7.0 12.2 0.00 0.00 0.00 63 1019.6
20220930132636 55 114 5.2 9.6 0.00 0.00 0.00 65 1019.9
20220930132136 55 107 4.3 9.6 0.00 0.00 0.00 65 1020.1
20220930131136 54 130 4.3 11.3 0.00 0.00 0.00 66 1020.0
20220930130636 54 142 5.2 11.3 0.00 0.00 0.00 67 1019.9
20220930130135 54 104 4.3 9.6 0.00 0.00 0.00 66 1020.0
20220930125635 54 102 5.2 9.6 0.00 0.00 0.00 66 1019.9
20220930124635 54 113 5.2 9.6 0.00 0.00 0.00 66 1020.0
20220930124136 54 125 5.2 9.6 0.00 0.00 0.00 66 1019.9
20220930123135 54 141 5.2 9.6 0.00 0.00 0.00 66 1019.9
20220930122635 54 128 5.2 10.4 0.00 0.00 0.00 65 1019.9
20220930122137 54 134 5.2 10.4 0.00 0.00 0.00 65 1019.9
20220930121635 54 121 3.5 11.3 0.00 0.00 0.00 65 1019.9
20220930120634 54 157 4.3 10.4 0.00 0.00 0.00 64 1019.7
20220930120134 54 118 4.3 10.4 0.00 0.00 0.00 64 1020.0
20220930115634 55 100 4.3 10.4 0.00 0.00 0.00 64 1020.1
20220930115135 55 107 3.5 10.4 0.00 0.00 0.00 64 1020.1
20220930114634 55 168 6.1 10.4 0.00 0.00 0.00 64 1020.2
20220930114135 55 99 4.3 9.6 0.00 0.00 0.00 64 1020.1
20220930113135 55 154 4.3 8.7 0.00 0.00 0.00 64 1020.2
20220930112634 55 147 4.3 8.7 0.00 0.00 0.00 64 1020.1
20220930111133 55 161 4.3 8.7 0.00 0.00 0.00 64 1020.1
20220930110635 55 123 5.2 8.7 0.00 0.00 0.00 64 1020.2
20220930110134 55 127 4.3 9.6 0.00 0.00 0.00 64 1020.2
20220930105632 54 128 3.5 9.6 0.00 0.00 0.00 64 1020.2
20220930105132 54 142 4.3 9.6 0.00 0.00 0.00 64 1020.3
20220930104633 54 113 5.2 8.7 0.00 0.00 0.00 64 1020.3
20220930103633 54 62 4.3 8.7 0.00 0.00 0.00 64 1020.2
20220930103133 54 118 4.3 9.6 0.00 0.00 0.00 64 1020.2
20220930102632 54 124 4.3 9.6 0.00 0.00 0.00 64 1020.2
20220930102132 54 118 2.6 8.7 0.00 0.00 0.00 64 1020.2
20220930100631 54 116 4.3 8.7 0.00 0.00 0.00 64 1020.1
20220930100132 54 149 3.5 8.7 0.00 0.00 0.00 64 1020.1
20220930094632 54 147 3.5 9.6 0.00 0.00 0.00 63 1019.9
20220930093632 54 141 3.5 7.8 0.00 0.00 0.00 63 1020.1
20220930093132 54 110 3.5 6.1 0.00 0.00 0.00 63 1019.9
20220930092632 54 118 3.5 9.6 0.00 0.00 0.00 63 1020.1
20220930092131 55 113 3.5 9.6 0.00 0.00 0.00 63 1020.1
20220930091632 54 134 2.6 7.8 0.00 0.00 0.00 63 1020.2
20220930091132 55 141 3.5 7.8 0.00 0.00 0.00 63 1020.1
20220930085131 55 141 3.5 6.1 0.00 0.00 0.00 61 1020.2
20220930083630 55 96 4.3 7.8 0.00 0.00 0.00 62 1020.2
20220930083131 55 118 3.5 7.8 0.00 0.00 0.00 61 1020.3
20220930082630 55 142 3.5 8.7 0.00 0.00 0.00 61 1020.4
20220930082129 55 111 3.5 8.7 0.00 0.00 0.00 61 1020.4
20220930081630 55 178 3.5 6.1 0.00 0.00 0.00 61 1020.4
20220930081129 55 117 2.6 5.2 0.00 0.00 0.00 61 1020.5
20220930080131 55 155 3.5 7.8 0.00 0.00 0.00 61 1020.5
20220930075630 55 109 3.5 5.2 0.00 0.00 0.00 61 1020.4
20220930073630 56 123 3.5 7.8 0.00 0.00 0.00 59 1020.3
20220930073129 56 142 3.5 7.8 0.00 0.00 0.00 59 1020.4
20220930072129 56 151 3.5 9.6 0.00 0.00 0.00 59 1020.4
20220930071129 56 100 5.2 8.7 0.00 0.00 0.00 58 1020.3
20220930070628 56 109 3.5 6.1 0.00 0.00 0.00 58 1020.2
20220930065629 57 104 4.3 9.6 0.00 0.00 0.00 58 1020.2
20220930064127 57 144 4.3 7.8 0.00 0.00 0.00 57 1020.2
20220930063627 57 164 3.5 8.7 0.00 0.00 0.00 57 1020.4
20220930063126 57 133 5.2 9.6 0.00 0.00 0.00 56 1020.3
20220930062629 57 155 5.2 10.4 0.00 0.00 0.00 56 1020.3
20220930061629 58 109 3.5 8.7 0.00 0.00 0.00 56 1020.4
20220930060627 58 141 3.5 11.3 0.00 0.00 0.00 55 1020.4
20220930060127 58 164 5.2 11.3 0.00 0.00 0.00 55 1020.5
20220930055627 58 120 4.3 10.4 0.00 0.00 0.00 55 1020.5
20220930055126 58 133 3.5 7.8 0.00 0.00 0.00 55 1020.5
20220930054627 58 142 5.2 7.8 0.00 0.00 0.00 54 1020.3
20220930054128 59 148 4.3 10.4 0.00 0.00 0.00 54 1020.5
20220930053627 59 147 6.1 10.4 0.00 0.00 0.00 54 1020.5
20220930052628 59 142 5.2 10.4 0.00 0.00 0.00 54 1020.5
20220930052126 59 131 5.2 10.4 0.00 0.00 0.00 54 1020.4
20220930051626 59 171 5.2 10.4 0.00 0.00 0.00 53 1020.4
20220930050626 59 111 5.2 13.0 0.00 0.00 0.00 53 1020.4
20220930050126 60 158 6.1 13.0 0.00 0.00 0.00 52 1020.3
20220930045625 60 197 5.2 10.4 0.00 0.00 0.00 52 1020.4
20220930044125 60 97 5.2 12.2 0.00 0.00 0.00 52 1020.2
20220930043625 60 106 7.8 12.2 0.00 0.00 0.00 52 1020.2
20220930042625 60 110 7.0 10.4 0.00 0.00 0.00 52 1020.3
20220930042126 60 131 5.2 11.3 0.00 0.00 0.00 52 1020.2
20220930041125 60 97 5.2 10.4 0.00 0.00 0.00 52 1020.2
20220930040625 60 116 4.3 11.3 0.00 0.00 0.00 51 1020.2
20220930035624 60 102 5.2 11.3 0.00 0.00 0.00 51 1020.1
20220930033126 61 99 4.3 11.3 0.00 0.00 0.00 49 1020.4
20220930032624 62 124 4.3 11.3 0.00 0.00 0.00 48 1020.4
20220930032123 62 159 4.3 11.3 0.00 0.00 0.00 48 1020.3
20220930025622 62 128 5.2 11.3 0.00 0.00 0.00 47 1020.1
20220930025122 62 109 4.3 11.3 0.00 0.00 0.00 47 1020.1
20220930024121 63 97 7.0 13.0 0.00 0.00 0.00 46 1020.1
20220930023123 62 113 6.1 12.2 0.00 0.00 0.00 47 1020.1
20220930022623 63 185 4.3 12.2 0.00 0.00 0.00 47 1019.9
20220930022122 63 120 4.3 9.6 0.00 0.00 0.00 47 1020.0
20220930021122 63 157 4.3 10.4 0.00 0.00 0.00 47 1020.1
20220930020123 64 138 4.3 10.4 0.00 0.00 0.00 45 1020.1
20220930015623 64 96 5.2 12.2 0.00 0.00 0.00 45 1019.9
20220930014623 64 135 7.8 12.2 0.00 0.00 0.00 44 1019.7
20220930014122 65 125 6.1 11.3 0.00 0.00 0.00 43 1019.7
20220930013623 65 90 7.0 11.3 0.00 0.00 0.00 44 1019.9
20220930013121 65 76 5.2 10.4 0.00 0.00 0.00 42 1019.9
20220930012621 66 111 5.2 11.3 0.00 0.00 0.00 42 1019.7
20220930012121 66 131 6.1 12.2 0.00 0.00 0.00 41 1019.9
20220930011121 66 127 7.0 12.2 0.00 0.00 0.00 41 1019.5
20220930010622 67 80 5.2 14.8 0.00 0.00 0.00 40 1019.7
20220930010122 67 107 7.0 14.8 0.00 0.00 0.00 40 1019.6
20220930005621 67 103 7.0 12.2 0.00 0.00 0.00 41 1019.7
20220930005121 67 94 5.2 12.2 0.00 0.00 0.00 41 1019.7
20220930004121 67 120 5.2 13.0 0.00 0.00 0.00 43 1019.6
20220930003122 67 117 6.1 12.2 0.00 0.00 0.00 43 1019.7
20220930002621 68 165 4.3 9.6 0.00 0.00 0.00 43 1019.6
20220930002121 68 121 6.1 11.3 0.00 0.00 0.00 43 1019.6
20220930000622 68 121 5.2 9.6 0.00 0.00 0.00 43 1019.6
20220930000119 69 100 4.3 9.6 0.00 0.00 0.00 42 1019.6
20220929235621 69 109 4.3 11.3 0.00 0.00 0.00 42 1019.7
20220929235120 69 113 6.1 11.3 0.00 0.00 0.00 42 1019.7
20220929234620 69 212 5.2 10.4 0.00 0.00 0.00 42 1019.7
20220929233618 70 128 6.1 14.8 0.00 0.00 0.00 41 1019.7
20220929233119 71 144 7.0 12.2 0.00 0.00 0.00 41 1019.7
20220929232620 71 118 7.8 12.2 0.00 0.00 0.00 41 1019.8
20220929230619 72 138 8.7 14.8 0.00 0.00 0.00 40 1020.1
20220929230119 72 185 7.0 11.3 0.00 0.00 0.00 40 1020.0
20220929225618 72 142 7.0 11.3 0.00 0.00 0.00 41 1020.1
20220929225121 73 158 5.2 13.0 0.00 0.00 0.00 40 1019.9
20220929221617 73 120 6.1 11.3 0.00 0.00 0.00 39 1020.4
20220929220617 73 86 7.8 13.0 0.00 0.00 0.00 38 1020.7
20220929220119 73 207 7.8 13.0 0.00 0.00 0.00 38 1020.8
20220929215118 74 117 9.6 16.5 0.00 0.00 0.00 38 1020.7
20220929214617 73 120 6.1 13.9 0.00 0.00 0.00 40 1020.7
20220929214118 73 93 7.8 13.9 0.00 0.00 0.00 40 1020.5
20220929213619 73 154 6.1 14.8 0.00 0.00 0.00 38 1020.9
20220929213118 73 175 9.6 14.8 0.00 0.00 0.00 39 1020.7
20220929212116 73 152 8.7 13.9 0.00 0.00 0.00 39 1020.9
20220929211116 73 107 8.7 13.9 0.00 0.00 0.00 39 1021.1
20220929210613 74 202 5.2 13.0 0.00 0.00 0.00 38 1021.2
20220929210114 73 140 7.8 13.0 0.00 0.00 0.00 38 1021.1
20220929205117 73 155 6.1 12.2 0.00 0.00 0.00 39 1021.3
20220929204115 73 135 8.7 13.9 0.00 0.00 0.00 38 1021.3
20220929203615 73 188 7.0 13.9 0.00 0.00 0.00 40 1021.5
20220929203115 72 125 8.7 14.8 0.00 0.00 0.00 38 1021.6
20220929202615 72 154 9.6 14.8 0.00 0.00 0.00 41 1021.7
20220929202115 73 113 8.7 12.2 0.00 0.00 0.00 40 1021.8
20220929201615 73 164 6.1 12.2 0.00 0.00 0.00 39 1021.9
20220929201115 72 152 7.8 12.2 0.00 0.00 0.00 40 1022.0
20220929200616 73 89 6.1 15.6 0.00 0.00 0.00 41 1022.0
20220929200116 72 149 7.8 15.6 0.00 0.00 0.00 41 1022.1
20220929195615 72 138 7.0 15.6 0.00 0.00 0.00 40 1022.1
20220929195115 72 164 3.5 13.9 0.00 0.00 0.00 42 1022.2
20220929193614 71 94 7.8 16.5 0.00 0.00 0.00 42 1022.4
20220929193114 71 121 8.7 16.5 0.00 0.00 0.00 40 1022.6
20220929192114 71 94 7.0 13.9 0.00 0.00 0.00 41 1023.0
20220929191115 70 131 8.7 13.9 0.00 0.00 0.00 41 1023.1
20220929190615 70 179 7.0 13.9 0.00 0.00 0.00 42 1023.2
20220929185613 70 175 7.8 16.5 0.00 0.00 0.00 40 1023.5
20220929185114 70 128 7.0 12.2 0.00 0.00 0.00 41 1023.7
20220929184613 70 116 7.0 14.8 0.00 0.00 0.00 41 1023.6
20220929184113 69 138 7.8 14.8 0.00 0.00 0.00 41 1024.0
20220929183614 69 92 7.8 13.9 0.00 0.00 0.00 41 1024.1
20220929183114 69 137 7.8 13.9 0.00 0.00 0.00 42 1024.0
20220929182614 69 159 7.8 13.9 0.00 0.00 0.00 43 1024.1
20220929181613 69 152 7.8 14.8 0.00 0.00 0.00 42 1024.1
20220929181114 69 152 6.1 11.3 0.00 0.00 0.00 42 1024.4
20220929180613 68 121 4.3 11.3 0.00 0.00 0.00 44 1024.5
20220929180113 68 110 4.3 12.2 0.00 0.00 0.00 46 1024.6
20220929175113 66 111 7.8 14.8 0.00 0.00 0.00 44 1024.8
20220929174612 66 123 8.7 14.8 0.00 0.00 0.00 44 1024.8
20220929174114 67 100 7.0 14.8 0.00 0.00 0.00 43 1024.9
20220929173613 66 134 5.2 14.8 0.00 0.00 0.00 45 1025.0
20220929172613 66 121 7.8 14.8 0.00 0.00 0.00 47 1025.1
20220929171612 65 92 6.1 13.0 0.00 0.00 0.00 48 1025.3
20220929170612 64 138 9.6 16.5 0.00 0.00 0.00 47 1025.6
20220929170111 64 111 8.7 12.2 0.00 0.00 0.00 48 1025.6